This is the latest recevied weather packets stored in our database for station/object HS6TUX-4. If no packets are shown the sender has not sent any weather packets the latest 10 day(s).
| Time | Temp. | Humidity | Pressure | Rain* | Wind** | Luminosity | Snow |
|---|---|---|---|---|---|---|---|
| 1777694688 | 38.89° C | 99% | 737 hPa | - | - | 131 W/m² | - |
| 1777693759 | 40.56° C | 98% | 739 hPa | - | - | 93 W/m² | - |
| 1777692831 | 39.44° C | 99% | 738 hPa | - | - | 87 W/m² | - |
| 1777691903 | 38.89° C | 99% | 737 hPa | - | - | 95 W/m² | - |
| 1777690975 | 40.56° C | 99% | 739 hPa | - | - | 260 W/m² | - |
| 1777690047 | 40.56° C | 99% | 739 hPa | - | - | 253 W/m² | - |
| 1777689119 | 38.33° C | 99% | 737 hPa | - | - | 118 W/m² | - |
| 1777688191 | 37.22° C | 99% | 736 hPa | - | - | 98 W/m² | - |
| 1777687263 | 39.44° C | 99% | 738 hPa | - | - | 175 W/m² | - |
| 1777686335 | 41.67° C | 99% | 741 hPa | - | - | 157 W/m² | - |
| 1777686142 | 40.56° C | 99% | 740 hPa | - | - | 153 W/m² | - |
| 1777685214 | 40° C | 99% | 739 hPa | - | - | 95 W/m² | - |
| 1777684285 | 38.89° C | 99% | 738 hPa | - | - | 124 W/m² | - |
| 1777683358 | 33.89° C | 99% | 732 hPa | - | - | 94 W/m² | - |
| 1777682429 | 35° C | 99% | 733 hPa | - | - | 57 W/m² | - |
| 1777681500 | 32.78° C | 99% | 730 hPa | - | - | 41 W/m² | - |
| 1777680572 | 32.22° C | 99% | 730 hPa | - | - | 35 W/m² | - |
| 1777679643 | 28.33° C | 99% | 726 hPa | - | - | 22 W/m² | - |
| 1777678715 | 27.22° C | 99% | 724 hPa | - | - | 11 W/m² | - |
| 1777677786 | 26.67° C | 99% | 723 hPa | - | - | 7 W/m² | - |
| 1777676858 | 26.11° C | 99% | 723 hPa | - | - | 2 W/m² | - |
| 1777675929 | 25.56° C | 99% | 722 hPa | - | - | 0 W/m² | - |
| 1777675001 | 26.11° C | 99% | 723 hPa | - | - | 0 W/m² | - |
| 1777674074 | 26.11° C | 99% | 723 hPa | - | - | 0 W/m² | - |
| 1777673145 | 25.56° C | 99% | 723 hPa | - | - | 0 W/m² | - |
* Rain since midnight (hover to see other rain measurements)
** Current wind speed in m/s (hover to see current wind gust speed)